Pittsburgh Allegheny Co., PA

7:12 AM EDT on October 14, 2019 (GMT -0400)
Allegheny County

Weather History for KAGC - September, 2019

Change the Weather History Date:

Friday, September 20, 2019

  Actual Average Record
Temperature  
Mean Temperature 66 °F -  
Max Temperature 81 °F 76 °F 87 °F (2002)
Min Temperature 53 °F 53 °F 43 °F (1991)
Cooling Degree Days 2    
Growing Degree Days 16 (Base 50)    
Moisture  
Dew Point 55 °F    
Average Humidity 65    
Maximum Humidity 89    
Minimum Humidity 48    
Precipitation  
Precipitation 0.00 in - - ()
Sea Level Pressure  
Sea Level Pressure 30.22 in    
Wind  
Wind Speed 5 mph (SSE)    
Max Wind Speed 8 mph    
Max Gust Speed -    
Visibility 10 miles    
Events      
Averages and records for this station are not official NWS values.
T = Trace of Precipitation, MM = Missing Value Source: NWS Daily Summary

Daily Weather History Graph

Daily Weather History Graph

Search for Another Location

Airport or City:

Astronomy

Sep. 20, 2019 Rise Set
Actual Time 7:05 AM EDT 7:20 PM EDT
Civil Twilight 6:37 AM EDT 7:47 PM EDT
Nautical Twilight 6:05 AM EDT 8:19 PM EDT
Astronomical Twilight 5:33 AM EDT 8:52 PM EDT
Moon 11:08 PM EDT (9/20) 1:09 PM EDT (9/20)
Length of Visible Light 13h 09m
Length of Day
12h 15m
Waning Gibbous, 65% of the Moon is Illuminated
Sep 20
Waning Gibbous
Sep 21
Last Quarter
Sep 28
New
Oct 5
First Quarter
Oct 13
Full

Hourly Weather History & Observations

Time (EDT) Temp. Heat Index Dew Point Humidity Pressure Visibility Wind Dir Wind Speed Gust Speed Precip Events Conditions
12:53 AM 59.0 °F - 50.0 °F 72% 30.21 in 10.0 mi SSE 5.8 mph - N/A   Clear
1:53 AM 57.9 °F - 48.9 °F 72% 30.22 in 10.0 mi SE 5.8 mph - N/A   Clear
2:53 AM 55.9 °F - 48.9 °F 77% 30.21 in 10.0 mi SSE 5.8 mph - N/A   Clear
3:53 AM 55.9 °F - 48.9 °F 77% 30.22 in 10.0 mi SSE 6.9 mph - N/A   Clear
4:53 AM 55.0 °F - 48.0 °F 77% 30.23 in 10.0 mi South 5.8 mph - N/A   Clear
5:53 AM 53.1 °F - 50.0 °F 89% 30.23 in 10.0 mi SSE 5.8 mph - N/A   Clear
6:53 AM 55.0 °F - 48.9 °F 80% 30.25 in 10.0 mi SSE 5.8 mph - N/A   Clear
7:53 AM 54.0 °F - 50.0 °F 86% 30.27 in 10.0 mi SSE 5.8 mph - N/A   Clear
8:53 AM 59.0 °F - 51.1 °F 75% 30.27 in 10.0 mi SSE 5.8 mph - N/A   Clear
9:53 AM 63.0 °F - 51.1 °F 65% 30.27 in 10.0 mi South 6.9 mph - N/A   Clear
10:53 AM 68.0 °F - 53.1 °F 59% 30.26 in 10.0 mi Calm Calm - N/A   Clear
11:53 AM 72.0 °F - 55.0 °F 55% 30.25 in 10.0 mi South 5.8 mph - N/A   Clear
12:53 PM 75.0 °F - 57.0 °F 53% 30.23 in 10.0 mi SSW 4.6 mph - N/A   Clear
1:53 PM 78.1 °F - 57.9 °F 50% 30.21 in 10.0 mi SSW 6.9 mph - N/A   Clear
2:53 PM 79.0 °F - 57.9 °F 48% 30.19 in 10.0 mi Calm Calm - N/A   Clear
3:53 PM 80.1 °F 80.7 °F 59.0 °F 48% 30.18 in 10.0 mi Variable 3.5 mph - N/A   Scattered Clouds
4:53 PM 80.1 °F 80.7 °F 59.0 °F 48% 30.17 in 10.0 mi South 8.1 mph - N/A   Clear
5:53 PM 79.0 °F - 60.1 °F 52% 30.18 in 10.0 mi SSE 5.8 mph - N/A   Mostly Cloudy
6:53 PM 78.1 °F - 60.1 °F 54% 30.19 in 10.0 mi Calm Calm - N/A   Mostly Cloudy
7:53 PM 75.9 °F - 60.1 °F 58% 30.19 in 10.0 mi SE 3.5 mph - N/A   Clear
8:53 PM 73.9 °F - 60.1 °F 62% 30.19 in 10.0 mi SE 3.5 mph - N/A   Clear
9:53 PM 73.0 °F - 60.1 °F 64% 30.21 in 10.0 mi SSE 3.5 mph - N/A   Clear
10:53 PM 70.0 °F - 61.0 °F 73% 30.21 in 10.0 mi SE 4.6 mph - N/A   Clear
11:53 PM 68.0 °F - 61.0 °F 78% 30.20 in 10.0 mi ESE 3.5 mph - N/A   Clear